Previsão horária em Abramovschina 3

Hoje, 16 Maio, Domingo

Tempo Temperatura Precipitação Vento Pressão Humidade
00:00 +11°C° 0 mm 1 m/s 740 mmHg 92%
01:00 +11°C° 0 mm 1 m/s 740 mmHg 93%
02:00 +10°C° 0 mm 1 m/s 740 mmHg 92%
03:00 +11°C° 0 mm 1 m/s 741 mmHg 91%
04:00 +11°C° 0 mm 1 m/s 741 mmHg 91%
05:00 +11°C° 0 mm 1 m/s 741 mmHg 90%
06:00 +12°C° 0 mm 1 m/s 741 mmHg 88%
07:00 +13°C° 0 mm 1 m/s 741 mmHg 85%
08:00 +14°C° 0 mm 2 m/s 741 mmHg 83%
09:00 +16°C° 0 mm 2 m/s 741 mmHg 77%
10:00 +17°C° 0 mm 2 m/s 741 mmHg 71%
11:00 +18°C° 0 mm 3 m/s 741 mmHg 65%
12:00 +19°C° 0.1 mm 3 m/s 741 mmHg 63%
13:00 +19°C° 0.1 mm 3 m/s 741 mmHg 60%
14:00 +19°C° 0.1 mm 3 m/s 741 mmHg 58%
15:00 +20°C° 0 mm 3 m/s 741 mmHg 59%
16:00 +20°C° 0 mm 3 m/s 741 mmHg 59%
17:00 +20°C° 0 mm 3 m/s 741 mmHg 60%
18:00 +18°C° 0 mm 3 m/s 740 mmHg 68%
19:00 +17°C° 0 mm 3 m/s 740 mmHg 75%
20:00 +14°C° 0 mm 3 m/s 740 mmHg 83%
21:00 +14°C° 0.1 mm 3 m/s 740 mmHg 84%
22:00 +13°C° 0.1 mm 3 m/s 740 mmHg 85%
23:00 +13°C° 0.1 mm 4 m/s 740 mmHg 87%

Amanhã, 17 Maio, Segunda-feira

Tempo Temperatura Precipitação Vento Pressão Humidade
00:00 +13°C° 0.1 mm 4 m/s 740 mmHg 89%
01:00 +13°C° 0.1 mm 3 m/s 739 mmHg 92%
02:00 +12°C° 0.1 mm 3 m/s 739 mmHg 95%
03:00 +12°C° 0.1 mm 3 m/s 739 mmHg 95%
04:00 +12°C° 0.1 mm 3 m/s 739 mmHg 95%
05:00 +12°C° 0.1 mm 3 m/s 739 mmHg 96%
06:00 +13°C° 0.1 mm 3 m/s 739 mmHg 94%
07:00 +14°C° 0.1 mm 3 m/s 740 mmHg 93%
08:00 +14°C° 0.1 mm 3 m/s 740 mmHg 91%
09:00 +16°C° 0 mm 3 m/s 740 mmHg 86%
10:00 +17°C° 0 mm 2 m/s 740 mmHg 82%
11:00 +18°C° 0 mm 2 m/s 740 mmHg 77%
12:00 +18°C° 0.6 mm 3 m/s 739 mmHg 79%
13:00 +18°C° 0.6 mm 3 m/s 739 mmHg 81%
14:00 +17°C° 0.6 mm 3 m/s 739 mmHg 84%
15:00 +17°C° 0.4 mm 3 m/s 739 mmHg 85%
16:00 +17°C° 0.4 mm 3 m/s 738 mmHg 86%
17:00 +16°C° 0.4 mm 3 m/s 738 mmHg 88%
18:00 +14°C° 0.2 mm 3 m/s 738 mmHg 91%
19:00 +14°C° 0.2 mm 2 m/s 737 mmHg 94%
20:00 +13°C° 0.2 mm 1 m/s 737 mmHg 97%
21:00 +13°C° 0.3 mm 2 m/s 736 mmHg 97%
22:00 +13°C° 0.3 mm 2 m/s 736 mmHg 97%
23:00 +13°C° 0.3 mm 2 m/s 735 mmHg 97%

Depois de amanhã, 18 Maio, Terça-feira

Tempo Temperatura Precipitação Vento Pressão Humidade
00:00 +13°C° 1.3 mm 2 m/s 734 mmHg 98%
01:00 +13°C° 1.3 mm 3 m/s 734 mmHg 98%
02:00 +13°C° 1.3 mm 3 m/s 733 mmHg 98%
03:00 +14°C° 0.9 mm 2 m/s 733 mmHg 98%
04:00 +14°C° 0.9 mm 2 m/s 732 mmHg 98%
05:00 +14°C° 0.9 mm 1 m/s 732 mmHg 99%
06:00 +14°C° 0.7 mm 1 m/s 732 mmHg 98%
07:00 +14°C° 0.7 mm 2 m/s 732 mmHg 98%
08:00 +13°C° 0.7 mm 3 m/s 732 mmHg 98%
09:00 +13°C° 0.1 mm 3 m/s 733 mmHg 97%
10:00 +13°C° 0.1 mm 4 m/s 733 mmHg 96%
11:00 +13°C° 0.1 mm 4 m/s 734 mmHg 95%
12:00 +14°C° 0.2 mm 5 m/s 734 mmHg 91%
13:00 +15°C° 0.2 mm 5 m/s 735 mmHg 87%
14:00 +15°C° 0.2 mm 5 m/s 736 mmHg 83%
15:00 +15°C° 0 mm 5 m/s 736 mmHg 82%
16:00 +15°C° 0 mm 4 m/s 736 mmHg 81%
17:00 +16°C° 0 mm 3 m/s 737 mmHg 80%
18:00 +14°C° 0 mm 3 m/s 737 mmHg 85%
19:00 +14°C° 0 mm 2 m/s 737 mmHg 90%
20:00 +13°C° 0 mm 2 m/s 738 mmHg 95%
21:00 +13°C° 0 mm 2 m/s 738 mmHg 96%
22:00 +12°C° 0 mm 2 m/s 738 mmHg 97%
23:00 +10°C° 0 mm 2 m/s 738 mmHg 98%

19 Maio, Quarta-feira

Tempo Temperatura Precipitação Vento Pressão Humidade
00:00 +10°C° 0 mm 3 m/s 738 mmHg 97%
01:00 +10°C° 0 mm 3 m/s 738 mmHg 97%
02:00 +10°C° 0 mm 3 m/s 738 mmHg 96%
03:00 +10°C° 0.2 mm 3 m/s 738 mmHg 96%
04:00 +10°C° 0.2 mm 3 m/s 738 mmHg 95%
05:00 +10°C° 0.2 mm 3 m/s 738 mmHg 95%
06:00 +9°C° 0 mm 5 m/s 738 mmHg 94%
07:00 +10°C° 0 mm 4 m/s 738 mmHg 94%
08:00 +10°C° 0 mm 4 m/s 738 mmHg 95%
09:00 +10°C° 0.8 mm 4 m/s 738 mmHg 93%
10:00 +9°C° 0.8 mm 5 m/s 738 mmHg 93%
11:00 +9°C° 0.8 mm 5 m/s 738 mmHg 93%
12:00 +9°C° 1.3 mm 6 m/s 737 mmHg 93%
13:00 +9°C° 1.3 mm 6 m/s 737 mmHg 93%
14:00 +9°C° 1.3 mm 6 m/s 737 mmHg 93%
15:00 +9°C° 1.7 mm 5 m/s 738 mmHg 95%
16:00 +9°C° 1.7 mm 5 m/s 738 mmHg 95%
17:00 +9°C° 1.7 mm 6 m/s 738 mmHg 95%
18:00 +9°C° 2.4 mm 6 m/s 738 mmHg 95%
19:00 +8°C° 2.4 mm 6 m/s 738 mmHg 95%
20:00 +8°C° 2.4 mm 6 m/s 738 mmHg 95%
21:00 +8°C° 0.8 mm 6 m/s 738 mmHg 95%
22:00 +8°C° 0.8 mm 5 m/s 738 mmHg 95%
23:00 +7°C° 0.8 mm 5 m/s 738 mmHg 95%

20 Maio, Quinta-feira

Tempo Temperatura Precipitação Vento Pressão Humidade
00:00 +7°C° 1.1 mm 5 m/s 738 mmHg 96%
01:00 +7°C° 1.1 mm 5 m/s 738 mmHg 96%
02:00 +7°C° 1.1 mm 5 m/s 738 mmHg 96%
03:00 +7°C° 1.2 mm 5 m/s 738 mmHg 96%
04:00 +7°C° 1.2 mm 5 m/s 738 mmHg 96%
05:00 +7°C° 1.2 mm 5 m/s 738 mmHg 96%
06:00 +8°C° 0.5 mm 5 m/s 738 mmHg 96%
07:00 +8°C° 0.5 mm 4 m/s 738 mmHg 96%
08:00 +8°C° 0.5 mm 4 m/s 738 mmHg 95%
09:00 +10°C° 0.2 mm 4 m/s 739 mmHg 94%
10:00 +10°C° 0.2 mm 4 m/s 739 mmHg 92%
11:00 +11°C° 0.2 mm 4 m/s 740 mmHg 90%
12:00 +11°C° 0.2 mm 4 m/s 740 mmHg 87%
13:00 +12°C° 0.2 mm 4 m/s 740 mmHg 83%
14:00 +13°C° 0.2 mm 4 m/s 740 mmHg 79%
15:00 +13°C° 0.1 mm 4 m/s 741 mmHg 79%
16:00 +13°C° 0.1 mm 4 m/s 741 mmHg 78%
17:00 +13°C° 0.1 mm 3 m/s 741 mmHg 78%
18:00 +12°C° 0.1 mm 3 m/s 741 mmHg 82%
19:00 +12°C° 0.1 mm 2 m/s 741 mmHg 87%
20:00 +10°C° 0.1 mm 2 m/s 741 mmHg 92%
21:00 +9°C° 0 mm 2 m/s 742 mmHg 93%
22:00 +9°C° 0 mm 2 m/s 742 mmHg 93%
23:00 +8°C° 0 mm 2 m/s 742 mmHg 94%

21 Maio, Sexta-feira

Tempo Temperatura Precipitação Vento Pressão Humidade
00:00 +9°C° 0 mm 1 m/s 742 mmHg 94%
01:00 +9°C° 0 mm 1 m/s 742 mmHg 94%
02:00 +9°C° 0 mm 1 m/s 742 mmHg 94%
03:00 +9°C° 0 mm 1 m/s 742 mmHg 94%
04:00 +9°C° 0 mm 2 m/s 742 mmHg 94%
05:00 +9°C° 0 mm 2 m/s 742 mmHg 94%
06:00 +9°C° 0.1 mm 2 m/s 742 mmHg 92%
07:00 +9°C° 0.1 mm 2 m/s 742 mmHg 90%
08:00 +9°C° 0.1 mm 3 m/s 743 mmHg 88%
09:00 +9°C° 0.1 mm 3 m/s 743 mmHg 86%
10:00 +10°C° 0.1 mm 3 m/s 743 mmHg 83%
11:00 +10°C° 0.1 mm 3 m/s 743 mmHg 80%
12:00 +12°C° 0 mm 3 m/s 743 mmHg 72%
13:00 +13°C° 0 mm 3 m/s 742 mmHg 64%
14:00 +14°C° 0 mm 3 m/s 742 mmHg 56%
15:00 +14°C° 0.1 mm 4 m/s 742 mmHg 60%
16:00 +13°C° 0.1 mm 4 m/s 742 mmHg 64%
17:00 +13°C° 0.1 mm 4 m/s 742 mmHg 68%
18:00 +12°C° 0.1 mm 4 m/s 743 mmHg 74%
19:00 +10°C° 0.1 mm 3 m/s 743 mmHg 81%
20:00 +8°C° 0.1 mm 3 m/s 744 mmHg 88%
21:00 +7°C° 0 mm 2 m/s 744 mmHg 90%
22:00 +6°C° 0 mm 2 m/s 745 mmHg 92%
23:00 +5°C° 0 mm 2 m/s 745 mmHg 94%
Mostrar mais

Necessitamos do seu Consentimento

A Meteoprog e os seus Fornecedores de Serviços podem armazenar e aceder a dados pessoais como cookies, identificadores do dispositivo ou outras tecnologias semelhantes existentes no seu dispositivo e processar estes dados para personalizar conteúdos e anúncios, assim como funcionalidades nas redes sociais e análise de tráfego.

  • Armazenar e/ou aceder a informações no seu dispositivo

    Os cookies, identificadores do dispositivo ou outras informações podem ser armazenados ou acedidos no seu dispositivo, para os fins acima indicados.

  • Anúncios e conteúdos personalizados, medição de anúncios e conteúdos, dados sobre o público-alvo e desenvolvimento de produtos

    Os anúncios e os conteúdos podem ser personalizados com base num perfil. Podem ser adicionados dados adicionais para uma maior personalização dos anúncios e dos conteúdos. A eficácia dos anúncios e dos conteúdos pode ser medida. Podem ser obtidas informações sobre o público que visualizou os anúncios e os conteúdos. Estes dados podem ser usados para desenvolver ou melhorar sistemas, softwares ou a experiência do utilizador.

Ao clicar em "Eu concordo”, permitirá o uso de cookies, identificadores do dispositivo e web beacons mencionados ou outras tecnologias semelhantes. As configurações do navegador do seu dispositivo podem ser alteradas.

Para certos fins, podem ser invocados interesses legítimos ao invés de consentimento. Pode ler mais informação sobre este assunto na nossa Política de Privacidade e Cookies.